National Weather Service Raw Text Product

Displaying AFOS PIL: RWRIA Received: 2018-06-14 00:00 UTC


350 
ASUS43 KDMX 140006
RWRIA 

WEATHER ROUNDUP FOR IOWA
NATIONAL WEATHER SERVICE DES MOINES IA
700 PM CDT WED JUN 13 2018

NOTE: "FAIR" INDICATES FEW OR NO CLOUDS BELOW 12,000 FEET WITH NO
SIGNIFICANT WEATHER AND/OR OBSTRUCTIONS TO VISIBILITY.

* - THESE STATIONS ARE NOT NWS STATIONS...THUS NOT UNDER NWS
QUALITY CONTROL.  THEY ALSO DO NOT REPORT WEATHER SUCH 
AS PRECIPITATION OR FOG.  

IAZ001>003-012>014-020>022-031>034-043>046-140100-
   NORTHWEST IOWA
  
CITY           SKY/WX    TMP DP  RH WIND       PRES   REMARKS
CARROLL *      CLOUDY    75  55  50 SE7       30.01F                  
CHEROKEE *     CLOUDY    73  51  46 SE10      30.00F                  
DENISON *      MOSUNNY   75  54  46 S5        30.04R                  
LE MARS *      CLOUDY   N/A N/A N/A E7G14     29.96F                  
ORANGE CITY *  CLOUDY    66  55  68 E3        29.98F                  
SHELDON *      LGT RAIN  64  59  82 E9        29.96F                  
SIOUX CITY     CLOUDY    67  57  70 SE7G18    29.94F                  
6HR MIN TEMP:  64; 6HR MAX TEMP:  79; 6HR PCP:  0.09;                

SPENCER        LGT RAIN  67  55  65 W7        30.03F                  
6HR MIN TEMP:  67; 6HR MAX TEMP:  80; 6HR PCP: TRACE;                

STORM LAKE *   PTSUNNY   73  50  43 W3        30.08R                  
$$
 
IAZ055>058-069>071-079>083-090>094-140100-
   SOUTHWEST IOWA
  
CITY           SKY/WX    TMP DP  RH WIND       PRES   REMARKS
ATLANTIC *     CLOUDY    73  55  53 E9        29.99F                  
AUDUBON *      CLOUDY    75  55  50 E7        30.01F                  
CLARINDA *     PTSUNNY   77  57  50 SE6       30.02R                  
COUNCIL BLFS * CLOUDY    77  57  50 S10G18    30.00R                  
CRESTON *      MOSUNNY   75  55  50 E6        30.02F                  
HARLAN  *      MOSUNNY   77  54  44 E10       30.02F                  
LAMONI         PTSUNNY   75  60  59 NE3       30.00F                  
6HR MIN TEMP:  75; 6HR MAX TEMP:  79;                                

RED OAK *      PTSUNNY   77  55  47 MISG      30.00R                  
SHENANDOAH *   MOSUNNY   79  57  47 SE9       29.98F HX  80           
$$
 
IAZ047>049-059>061-072>074-084-140100-
   CENTRAL IOWA
  
CITY           SKY/WX    TMP DP  RH WIND       PRES   REMARKS
AMES           CLOUDY    78  54  43 SE6       30.02R                  
6HR MIN TEMP:  77; 6HR MAX TEMP:  81;                                

ANKENY *       CLOUDY    77  55  47 SE3       30.03S                  
BOONE *        CLOUDY    77  55  47 CALM      30.02F                  
CHARITON *     CLOUDY    79  52  38 CALM      30.02F                  
DES MOINES     CLOUDY    77  50  38 SE6       30.01F                  
6HR MIN TEMP:  77; 6HR MAX TEMP:  81;                                

GRINNELL*      CLOUDY    77  49  37 E6        30.03F                  
KNOXVILLE *    CLOUDY    77  52  41 CALM      30.01F                  
MARSHALLTOWN   CLOUDY    79  51  37 S6        30.01S                  
6HR MIN TEMP:  77; 6HR MAX TEMP:  82;                                

NEWTON *       CLOUDY    75  59  57 SW5       30.02F                  
PELLA *        CLOUDY    79  46  30 SE3       30.03F                  
PERRY *        FAIR      77  49  36 S3        30.03S                  
$$
 
IAZ004>006-015-016-023>025-035-036-140100-
   NORTH CENTRAL IOWA
  
CITY           SKY/WX    TMP DP  RH WIND       PRES   REMARKS
ALGONA *       CLOUDY    75  45  33 W9        30.05R                  
CLARION *      MOSUNNY   79  39  24 SW6       30.03R                  
ESTHERVILLE    LGT RAIN  71  49  45 S8        30.03R                  
6HR MIN TEMP:  71; 6HR MAX TEMP:  78; 6HR PCP: TRACE;                

FORT DODGE *   MOSUNNY   75  53  46 CALM      30.04S                  
MASON CITY     CLOUDY    74  47  38 CALM      30.04F                  
6HR MIN TEMP:  74; 6HR MAX TEMP:  79;                                

FOREST CITY *  FAIR      72  52  49 CALM      30.03S                  
WEBSTER CITY * CLOUDY    77  45  31 S5        30.01F                  
IOWA FALLS *   FAIR      80  42  26 CALM      30.04S                  
$$

IAZ007>011-017>019-026>030-037>042-050>054-066-140100-
   NORTHEAST IOWA
  
CITY           SKY/WX    TMP DP  RH WIND       PRES   REMARKS
CEDAR RAPIDS   FAIR      77  51  40 N5        30.02S                  
6HR MIN TEMP:  76; 6HR MAX TEMP:  80;                                

CHARLES CITY * FAIR      73  52  46 W3        30.04R                  
CLINTON *      FAIR      77  54  44 N7        30.02F                  
DECORAH *      FAIR      73  50  43 NW3       30.02S                  
DUBUQUE        FAIR      73  55  53 NW5       30.03S                  
6HR MIN TEMP:  73; 6HR MAX TEMP:  78;                                

MONTICELLO *   FAIR      77  55  47 CALM      30.02S                  
OELWEIN *      FAIR      75  52  43 CALM      30.04S                  
WATERLOO       FAIR      77  49  37 NW3       30.02S                  
6HR MIN TEMP:  77; 6HR MAX TEMP:  80;                                

$$
 
IAZ064-065-067-068-078-140100-
   EAST CENTRAL IOWA
  
CITY           SKY/WX    TMP DP  RH WIND       PRES   REMARKS
DAVENPORT      FAIR      76  54  46 NW5       30.03F                  
6HR MIN TEMP:  76; 6HR MAX TEMP:  80;                                

IOWA CITY      FAIR      79  50  36 N6        30.02F                  
6HR MIN TEMP:  78; 6HR MAX TEMP:  81;                                

MT. PLEASANT * SUNNY     77  50  38 E5        30.01F                  
MUSCATINE *      N/A    N/A N/A N/A MISG        N/A                   
QUAD CITIES    FAIR      79  50  36 NW6       30.00F                  
6HR MIN TEMP:  79; 6HR MAX TEMP:  82;                                

$$
 
IAZ062-063-075>077-085>089-095>099-140100-
   SOUTHEAST IOWA
  
CITY           SKY/WX    TMP DP  RH WIND       PRES   REMARKS
BURLINGTON     SUNNY     79  47  32 NE7       30.01F                  
6HR MIN TEMP:  79; 6HR MAX TEMP:  83;                                

FAIRFIELD *    MOSUNNY   77  50  38 NE3       30.01F                  
FORT MADISON * MOSUNNY   79  52  38 CALM      30.02S                  
KEOKUK *       SUNNY     79  50  36 CALM      30.00F                  
OSKALOOSA *    FAIR      78  47  33 CALM      30.03R                  
CENTERVILLE *    N/A     77  50  38 CALM      30.04S                  
OTTUMWA        PTSUNNY   79  49  34 E5        30.02F                  
6HR MIN TEMP:  79; 6HR MAX TEMP:  83;                                

WASHINGTON *   CLOUDY    79  50  36 CALM      30.03S                  
$$

ABBREVIATIONS USED IN REMARKS
   TC - TEMPERATURES IN CELSIUS
  WCI - WIND CHILL INDEX
   HX - HEAT INDEX
  VSB - VISIBILITY  
$$

  

708 
ASUS43 KDMX 140001
RWRIA 

WEATHER ROUNDUP FOR IOWA
NATIONAL WEATHER SERVICE DES MOINES IA
700 PM CDT WED JUN 13 2018

NOTE: "FAIR" INDICATES FEW OR NO CLOUDS BELOW 12,000 FEET WITH NO
SIGNIFICANT WEATHER AND/OR OBSTRUCTIONS TO VISIBILITY.

* - THESE STATIONS ARE NOT NWS STATIONS...THUS NOT UNDER NWS
QUALITY CONTROL.  THEY ALSO DO NOT REPORT WEATHER SUCH 
AS PRECIPITATION OR FOG.  

IAZ001>003-012>014-020>022-031>034-043>046-140100-
   NORTHWEST IOWA
  
CITY           SKY/WX    TMP DP  RH WIND       PRES   REMARKS
CARROLL *      CLOUDY    75  55  50 SE7       30.01F                  
CHEROKEE *     CLOUDY    73  51  46 SE10      30.00F                  
DENISON *      MOSUNNY   75  54  46 S5        30.04R                  
LE MARS *      CLOUDY   N/A N/A N/A E7G14     29.96F                  
ORANGE CITY *  CLOUDY    66  55  68 E3        29.98F                  
SHELDON *      LGT RAIN  64  59  82 E9        29.96F                  
SIOUX CITY     CLOUDY    67  57  70 SE7G18    29.94F                  
6HR MIN TEMP:  64; 6HR MAX TEMP:  79; 6HR PCP:  0.09;                

SPENCER        LGT RAIN  67  55  65 W7        30.03F                  
6HR MIN TEMP:  67; 6HR MAX TEMP:  80; 6HR PCP: TRACE;                

STORM LAKE *   PTSUNNY   73  50  43 W3        30.08R                  
$$
 
IAZ055>058-069>071-079>083-090>094-140100-
   SOUTHWEST IOWA
  
CITY           SKY/WX    TMP DP  RH WIND       PRES   REMARKS
ATLANTIC *     CLOUDY    73  55  53 E9        29.99F                  
AUDUBON *      CLOUDY    75  55  50 E7        30.01F                  
CLARINDA *     PTSUNNY   77  57  50 SE6       30.02R                  
COUNCIL BLFS * CLOUDY    77  57  50 S10G18    30.00R                  
CRESTON *      MOSUNNY   75  55  50 E6        30.02F                  
HARLAN  *      MOSUNNY   77  54  44 E10       30.02F                  
LAMONI         PTSUNNY   75  60  59 NE3       30.00F                  
6HR MIN TEMP:  75; 6HR MAX TEMP:  79;                                

RED OAK *      PTSUNNY   77  55  47 MISG      30.00R                  
SHENANDOAH *   MOSUNNY   79  57  47 SE9       29.98F HX  80           
$$
 
IAZ047>049-059>061-072>074-084-140100-
   CENTRAL IOWA
  
CITY           SKY/WX    TMP DP  RH WIND       PRES   REMARKS
AMES           CLOUDY    78  54  43 SE6       30.02R                  
6HR MIN TEMP:  77; 6HR MAX TEMP:  81;                                

ANKENY *       CLOUDY    77  55  47 SE3       30.03S                  
BOONE *        CLOUDY    77  55  47 CALM      30.02F                  
CHARITON *     CLOUDY    79  52  38 CALM      30.02F                  
DES MOINES     CLOUDY    77  50  38 SE6       30.01F                  
6HR MIN TEMP:  77; 6HR MAX TEMP:  81;                                

GRINNELL*      CLOUDY    77  49  37 E6        30.03F                  
MARSHALLTOWN   CLOUDY    79  51  37 S6        30.01S                  
6HR MIN TEMP:  77; 6HR MAX TEMP:  82;                                

NEWTON *       CLOUDY    75  59  57 SW5       30.02F                  
PELLA *        CLOUDY    79  46  30 SE3       30.03F                  
$$
 
IAZ004>006-015-016-023>025-035-036-140100-
   NORTH CENTRAL IOWA
  
CITY           SKY/WX    TMP DP  RH WIND       PRES   REMARKS
ALGONA *       CLOUDY    75  45  33 W9        30.05R                  
CLARION *      MOSUNNY   79  39  24 SW6       30.03R                  
ESTHERVILLE    LGT RAIN  71  49  45 S8        30.03R                  
6HR MIN TEMP:  71; 6HR MAX TEMP:  78; 6HR PCP: TRACE;                

FORT DODGE *   MOSUNNY   75  53  46 CALM      30.04S                  
MASON CITY     CLOUDY    74  47  38 CALM      30.04F                  
6HR MIN TEMP:  74; 6HR MAX TEMP:  79;                                

FOREST CITY *  FAIR      72  52  49 CALM      30.03S                  
IOWA FALLS *   FAIR      80  42  26 CALM      30.04S                  
$$

IAZ007>011-017>019-026>030-037>042-050>054-066-140100-
   NORTHEAST IOWA
  
CITY           SKY/WX    TMP DP  RH WIND       PRES   REMARKS
CEDAR RAPIDS   FAIR      77  51  40 N5        30.02S                  
6HR MIN TEMP:  76; 6HR MAX TEMP:  80;                                

CHARLES CITY * FAIR      73  52  46 W3        30.04R                  
CLINTON *      FAIR      77  54  44 N7        30.02F                  
DECORAH *      FAIR      73  50  43 NW3       30.02S                  
DUBUQUE        FAIR      73  55  53 NW5       30.03S                  
6HR MIN TEMP:  73; 6HR MAX TEMP:  78;                                

MONTICELLO *   FAIR      77  55  47 CALM      30.02S                  
OELWEIN *      FAIR      75  52  43 CALM      30.04S                  
WATERLOO       FAIR      77  49  37 NW3       30.02S                  
6HR MIN TEMP:  77; 6HR MAX TEMP:  80;                                

$$
 
IAZ064-065-067-068-078-140100-
   EAST CENTRAL IOWA
  
CITY           SKY/WX    TMP DP  RH WIND       PRES   REMARKS
DAVENPORT      FAIR      76  54  46 NW5       30.03F                  
6HR MIN TEMP:  76; 6HR MAX TEMP:  80;                                

IOWA CITY      FAIR      79  50  36 N6        30.02F                  
6HR MIN TEMP:  78; 6HR MAX TEMP:  81;                                

MUSCATINE *      N/A    N/A N/A N/A MISG        N/A                   
QUAD CITIES    FAIR      79  50  36 NW6       30.00F                  
6HR MIN TEMP:  79; 6HR MAX TEMP:  82;                                

$$
 
IAZ062-063-075>077-085>089-095>099-140100-
   SOUTHEAST IOWA
  
CITY           SKY/WX    TMP DP  RH WIND       PRES   REMARKS
BURLINGTON     SUNNY     79  47  32 NE7       30.01F                  
6HR MIN TEMP:  79; 6HR MAX TEMP:  83;                                

FAIRFIELD *    MOSUNNY   77  50  38 NE3       30.01F                  
FORT MADISON * MOSUNNY   79  52  38 CALM      30.02S                  
KEOKUK *       SUNNY     79  50  36 CALM      30.00F                  
OSKALOOSA *    FAIR      78  47  33 CALM      30.03R                  
CENTERVILLE *    N/A     77  50  38 CALM      30.04S                  
OTTUMWA        PTSUNNY   79  49  34 E5        30.02F                  
6HR MIN TEMP:  79; 6HR MAX TEMP:  83;                                

WASHINGTON *   CLOUDY    79  50  36 CALM      30.03S                  
$$

ABBREVIATIONS USED IN REMARKS
   TC - TEMPERATURES IN CELSIUS
  WCI - WIND CHILL INDEX
   HX - HEAT INDEX
  VSB - VISIBILITY  
$$